Location: Unspecified
(40.4667°N, 0.0000°E)
Time: 02:55:22
(UTC+00:00)

ISS - Pass Details

Date: 27 May 2019
Orbit: 407 x 418 km, 51.6° (Epoch: 20 June)

Event Time Altitude Azimuth Distance (km) Brightness Sun altitude
Rises 21:19:10 0° 310° (NW) 2,356 1.6 -18.1°
Reaches altitude 10° 21:21:59 10° 336° (NNW) 1,495 0.2 -18.4°
Maximum altitude 21:23:56 15° 12° (NNE) 1,252 -0.8 -18.6°
Drops below altitude 10° 21:25:53 10° 47° (NE) 1,498 -0.9 -18.9°
Enters shadow 21:26:52 - 59° (ENE) 1,756 -0.7 -19.0°
